Tracking 29933 objects as of 2-Dec-2024
HD Live streaming from Space Station
objects crossing your sky now

STARLINK-31818

Track STARLINK-31818 now!
10-day predictions
STARLINK-31818 is classified as:


NORAD ID: 59741
Int'l Code: 2024-090M
Perigee: 449.6 km
Apogee: 452.7 km
Inclination: 43.0 °
Period: 93.5 minutes
Semi major axis: 6822 km
RCS: Unknown
Launch date: May 13, 2024
Source: United States (US)
Launch site: AIR FORCE EASTERN TEST RANGE (AFETR)
Your satellite tracking list
Your tracking list is empty




NASA's NSSDC Master Catalog

Two Line Element Set (TLE):
1 59741U 24090M   24337.55976394  .00002181  00000-0  59453-4 0  9990
2 59741  43.0056 281.9946 0002256 283.3103  76.7502 15.40705308 32645
Source of the keplerian elements: AFSPC